Location: Unspecified
(58.7730°N, 5.8460°E)
Time: 19:59:53
(UTC+02:00)

Okean 3 - Visible Passes

Search period start: 24 August 2016 00:00
Search period end: 03 September 2016 00:00
Orbit: 577 x 604 km, 82.5° (Epoch: 24 August)

Date Brightness Start Highest point End Pass type
(mag) Time Alt. Az. Time Alt. Az. Time Alt. Az.
30 Aug 7.1 05:30:21 10° E 05:31:17 11° ENE 05:32:12 10° ENE visible
31 Aug 6.6 05:37:15 10° ESE 05:39:31 14° E 05:41:47 10° NE visible
01 Sep 6.4 05:44:50 10° SE 05:47:48 19° E 05:50:45 10° NE visible
